Location: Kikino
(54.4440°N, 112.0940°W)
Time: 00:12:18
(UTC+00:00)

Vanguard 3 - Pass Details

Date: 22 May 2024
Orbit: 509 x 3231 km, 33.3° (Epoch: 21 June)

Event Time Altitude Azimuth Distance (km) Brightness Sun altitude
Rises 04:51:22 0° 245° (WSW) 5,001 11.3 -8.2°
Reaches altitude 10° 04:54:45 10° 235° (SW) 4,371 10.9 -8.5°
Maximum altitude 05:05:19 31° 180° (S) 3,843 10.1 -9.3°
Drops below altitude 10° 05:19:53 10° 129° (SE) 6,055 11.0 -10.4°
Enters shadow 05:24:03 - 122° (ESE) 6,862 11.3 -10.7°
